Satellite-Ground Cal/Val Site Overpasses Predictions

Prediction of Satellite NPP Overpassing Cal/Val Site: Antarctic Dome C

Ground Cal/Val Site Location: Latitude: -75.10, Longitude: 123.35; Satellite-Ground Site NADIR distance within 100 km.

Table of predicted overpasses for the next 14.0 days since TLE Epoch: 9/11/2020
Interval Starting Time Ending Time Minimum Distance Time Minimum Distance (km)
1 09/12/2020 15:07:49 09/12/2020 15:07:56 09/12/2020 15:07:52 96.77
2 09/13/2020 14:48:48 09/13/2020 14:49:17 09/13/2020 14:49:02 14.41
3 09/15/2020 07:31:37 09/15/2020 07:32:07 09/15/2020 07:31:52 1.82
4 09/18/2020 14:55:06 09/18/2020 14:55:35 09/18/2020 14:55:20 22.13
5 09/19/2020 14:36:24 09/19/2020 14:36:39 09/19/2020 14:36:31 84.93
6 09/20/2020 07:37:57 09/20/2020 07:38:24 09/20/2020 07:38:10 34.22
7 09/21/2020 07:19:11 09/21/2020 07:19:30 09/21/2020 07:19:20 75.87
8 09/23/2020 15:01:26 09/23/2020 15:01:49 09/23/2020 15:01:38 59.08
9 09/24/2020 14:42:36 09/24/2020 14:43:02 09/24/2020 14:42:49 50.03
